TimeEDT,TemperatureF,Dew PointF,Humidity,Sea Level PressureIn,VisibilityMPH,Wind Direction,Wind SpeedMPH,Gust SpeedMPH,PrecipitationIn,Events,Conditions,WindDirDegrees,DateUTC
12:55 AM,73.0,55.9,55,29.90,10.0,South,21.9,29.9,N/A,,Overcast,190,2013-09-29 04:55:00
1:55 AM,71.1,57.9,63,29.90,10.0,SSW,12.7,23.0,N/A,,Overcast,210,2013-09-29 05:55:00
2:39 AM,64.4,60.8,88,29.93,10.0,NW,18.4,26.5,0.00,,Overcast,310,2013-09-29 06:39:00
2:50 AM,62.6,59.0,88,29.93,8.0,NW,16.1,23.0,0.00,Rain,Light Rain,320,2013-09-29 06:50:00
2:55 AM,62.1,59.0,90,29.92,5.0,NW,12.7,23.0,0.02,Rain,Rain,310,2013-09-29 06:55:00
3:55 AM,59.0,57.0,93,29.94,4.0,NW,9.2,-,0.14,Rain,Rain,320,2013-09-29 07:55:00
4:47 AM,57.2,53.6,88,29.96,4.0,NNW,13.8,-,0.13,Rain,Rain,330,2013-09-29 08:47:00
4:55 AM,57.0,54.0,89,29.96,4.0,NNW,9.2,-,0.16,Rain,Heavy Rain,330,2013-09-29 08:55:00
5:10 AM,57.2,53.6,88,29.96,6.0,NNW,9.2,-,0.05,Rain,Rain,340,2013-09-29 09:10:00
5:55 AM,57.0,54.0,89,29.97,10.0,NNW,6.9,-,0.10,Rain,Light Rain,330,2013-09-29 09:55:00
6:25 AM,57.2,53.6,88,29.98,10.0,NW,3.5,-,0.00,,Mostly Cloudy,320,2013-09-29 10:25:00
6:55 AM,57.0,53.1,87,29.99,10.0,NW,3.5,-,0.00,,Partly Cloudy,310,2013-09-29 10:55:00
7:55 AM,55.9,52.0,87,30.00,10.0,NNW,6.9,-,N/A,,Scattered Clouds,330,2013-09-29 11:55:00
8:55 AM,57.9,52.0,81,30.01,10.0,North,6.9,-,N/A,,Partly Cloudy,360,2013-09-29 12:55:00
9:55 AM,61.0,53.1,75,30.02,10.0,North,5.8,-,N/A,,Scattered Clouds,360,2013-09-29 13:55:00
10:41 AM,62.6,53.6,72,30.03,10.0,NNW,11.5,-,N/A,,Mostly Cloudy,340,2013-09-29 14:41:00
10:55 AM,63.0,52.0,67,30.03,10.0,NNW,9.2,-,N/A,,Mostly Cloudy,330,2013-09-29 14:55:00
11:42 AM,64.4,51.8,64,30.04,10.0,North,10.4,-,N/A,,Mostly Cloudy,10,2013-09-29 15:42:00
11:55 AM,64.0,51.1,63,30.04,10.0,North,10.4,17.3,N/A,,Scattered Clouds,350,2013-09-29 15:55:00
12:55 PM,66.9,48.0,51,30.04,10.0,North,10.4,-,N/A,,Scattered Clouds,10,2013-09-29 16:55:00
1:55 PM,68.0,48.0,49,30.03,10.0,North,8.1,-,N/A,,Scattered Clouds,350,2013-09-29 17:55:00
2:55 PM,70.0,46.9,44,30.01,10.0,NNE,6.9,-,N/A,,Mostly Cloudy,20,2013-09-29 18:55:00
3:55 PM,69.1,46.0,44,30.01,10.0,ENE,3.5,-,N/A,,Mostly Cloudy,70,2013-09-29 19:55:00
4:55 PM,66.9,45.0,45,30.00,10.0,North,8.1,-,N/A,,Scattered Clouds,350,2013-09-29 20:55:00
5:55 PM,69.1,46.0,44,30.00,10.0,NE,9.2,-,N/A,,Scattered Clouds,50,2013-09-29 21:55:00
6:55 PM,64.0,50.0,60,30.01,10.0,NW,8.1,-,N/A,,Scattered Clouds,320,2013-09-29 22:55:00
7:55 PM,59.0,48.0,67,30.00,10.0,NNW,4.6,-,N/A,,Partly Cloudy,330,2013-09-29 23:55:00
8:55 PM,57.9,48.0,70,30.01,10.0,North,4.6,-,N/A,,Clear,350,2013-09-30 00:55:00
9:55 PM,57.0,45.0,64,30.01,10.0,North,5.8,-,N/A,,Clear,360,2013-09-30 01:55:00
10:55 PM,54.0,46.0,75,30.01,10.0,North,4.6,-,N/A,,Clear,360,2013-09-30 02:55:00
11:55 PM,54.0,46.0,75,30.01,10.0,Calm,Calm,-,N/A,,Overcast,0,2013-09-30 03:55:00